weather.gov     
National Weather Service

Regional Weather Roundup
NWS Homepage
This page is being discontinued on March 12, 2014.
The same data is available at this site. Please update your bookmarks.
Thank you, and we apologize for the inconvenience.
Please send an email to SR-SRH.Webmaster@noaa.gov with any concerns.


Current Version
Previous Version:    01  02  03  04  05  06  07  08  09  10  11  12  13  14  15  16  17  18  19  20  21  22  23  24  25  26  27  28  29  30  
   31  32  33  34  35  36  37  38  39  40  41  42  43  44  45  46  47  48  49  50  51  52  53  54  
[Printable]
088
ASUS45 KTFX 260319
RWRMT
MONTANA HOURLY WEATHER ROUNDUP
NATIONAL WEATHER SERVICE GREAT FALLS MT
919 PM MDT SAT OCT 25 2014

NOTE: "FAIR" INDICATES FEW OR NO CLOUDS BELOW 12000 FEET WITH NO
SIGNIFICANT WEATHER AND/OR OBSTRUCTIONS TO VISIBILITY.

* THESE STATIONS ARE NOT UNDER NWS QUALITY CONTROL. THEY DO NOT
   REPORT WEATHER SUCH AS PRECIPITATION OR FOG.

MTZ001>007-043-260400-
WEST OF THE DIVIDE
CITY           SKY/WX    TMP DP  RH WIND       PRES   REMARKS
KALISPELL      PTCLDY    45  41  86 W5        29.59F
MISSOULA       MOCLDY    46  43  89 E6        29.68F
BUTTE          PTCLDY    52  32  47 S7        29.76F
MULLAN PASS    CLOUDY    48  30  50 S9G20     29.67F
* ESSEX        N/A       57  36  46 E4G16      N/A
* LINCOLN      N/A       38  37  96 S4         N/A
* LOOKOUT PASS N/A       46  39  77 SE4G12     N/A
* POLSON       N/A       42  41  96 S1         N/A
* RONAN APT    PTCLDY    45  43  93 N/A        N/A
* SEELEY LAKE  N/A       38  37  96 NE2        N/A
* THOMP F APT  MOCLDY    52  30  43 NE2G19     N/A
$$

MTZ008-052>055-260400-
SOUTHWEST MONTANA
CITY           SKY/WX    TMP DP  RH WIND       PRES   REMARKS
BOZEMAN        MOCLDY    48  36  63 S7        29.73F
DILLON         MOCLDY    61  30  31 S12       29.75F
W YELLOWSTONE  MOCLDY    50  28  43 SW6       29.91F
* THREE FORKS  PTCLDY    48  27  44 N/A        N/A
* BOULDER HILL N/A       51  26  38 S5         N/A
* MONIDA PASS  N/A       54  30  40 S17G26     N/A
* RAYNOLDS PAS N/A       55  38  53 S12G23     N/A
* WHITEHALL    N/A       45  40  83 N4G9       N/A
* WISE RIVER   N/A       45  38  77 S3G9       N/A
$$

MTZ009>010-012-014-046-048-049-054-260400-
EAST SLOPES AND CENTRAL MONTANA
CITY           SKY/WX    TMP DP  RH WIND       PRES   REMARKS
CUT BANK       MOCLDY    43  37  79 W14G23    29.66R
GREAT FALLS    PTCLDY    46  41  83 SE7       29.61F
HELENA         PTCLDY    48  41  77 S5        29.67F
MALMSTROM AFB  PTCLDY    46  41  83 S5        29.63F
* CONRAD       CLEAR     36  34  92 N/A        N/A
* DEARBORN     N/A       47  41  80 NW1        N/A
* EAST GLACIER N/A       49  37  63 W9G18      N/A
* MONARCH      N/A       61  20  20 SW12       N/A
* PENDROY      N/A       43  40  89 SW5        N/A
* ROGERS PASS  N/A       51  35  54 NW4        N/A
* SAINT MARY   N/A       56  29  36 SW6G15     N/A
* SWEET GRASS  N/A       47  39  74 S16        N/A
* WHITE SULPH  N/A       54  29  38 SW2G9      N/A
$$

MTZ011-013-016-021-035-040-045-047-050-051-260400-
NORTH CENTRAL MONTANA
CITY           SKY/WX    TMP DP  RH WIND       PRES   REMARKS
HAVRE          CLOUDY    48  37  66 E6        29.59F
LEWISTOWN      MOCLDY    52  43  72 SE6       29.68F
* FORT BENTON  MOCLDY    55  39  55 CALM      29.61F
* CHESTER      N/A       45  35  68 W1         N/A
* DENTON       N/A       59  34  39 S6         N/A
* GEYSER       N/A       52  36  55 SW2G8      N/A
* JUDITH GAP   N/A       43  36  76 SE6        N/A
* LOMA         N/A       52  38  59 NE8        N/A
$$

MTZ017>020-022>027-061-062-260400-
NORTHEAST MONTANA
CITY           SKY/WX    TMP DP  RH WIND       PRES   REMARKS
GLASGOW        MOCLDY    55  30  39 E17       29.67F
GLENDIVE       MOCLDY    50  34  54 E8        29.76F
JORDAN         MOCLDY    48  32  54 NE3       29.67F
SIDNEY         MOCLDY    48  30  50 CALM      29.79F
WOLF POINT     CLOUDY    50  32  50 E12       29.72F
* BEAVER HILL  N/A       52  33  48 SE21G29    N/A
* CIRCLE       N/A       56  37  49 E12        N/A
* LINDSAY DVD  N/A       48  34  59 E14        N/A
* NAVAJO       N/A       50  31  48 SE9        N/A
$$

MTZ028>042-056>058-260400-
SOUTHCENTRAL AND SOUTHEAST MONTANA
CITY           SKY/WX    TMP DP  RH WIND       PRES   REMARKS
BAKER          CLEAR     54  32  43 SE24      29.79F
BILLINGS       CLOUDY    54  34  47 NW6       29.70F
LIVINGSTON     MOCLDY    68  27  21 SW18G25   29.73S
MILES CITY     CLOUDY    61  36  39 VRB6      29.69F
* LAUREL APT   CLOUDY    54  34  47 N/A        N/A
* ROUNDUP APT  CLOUDY    50  36  59 N/A        N/A
* ALZADA       N/A       52  38  59 E6         N/A
* HYSHAM       N/A       59  32  36 E1         N/A
* LAME DEER    N/A       61  32  34 SE8        N/A
* REED POINT   N/A       48  38  68 S2         N/A
* ROSCOE HILL  N/A       63  22  21 SW2        N/A
$$

REGIONAL REPORTS...DAKOTAS
CITY           SKY/WX    TMP DP  RH WIND       PRES   REMARKS
WILLISTON      PTCLDY    54  30  40 SE10G17   29.83F
DICKINSON      CLEAR     52  30  43 SE18G25   29.85F
BEACH          N/A       52  32  47 SE18G26   29.80F
CROSBY         CLEAR     48  32  54 SE13      29.86F
TIOGA          N/A       45  30  56 SE10      29.90F
BISMARCK       CLEAR     43  30  60 SE5       29.97F
GRAND FORKS    CLEAR     41  25  53 SW6       30.00S
FARGO          CLEAR     41  23  49 S5        30.03S
BUFFALO SD     CLEAR     54  30  40 SE16      29.79F
RAPID CITY     CLEAR     48  37  66 S8        29.90F
$$

REGIONAL REPORTS...WYOMING/IDAHO/WASHINGTON
CITY           SKY/WX    TMP DP  RH WIND       PRES   REMARKS
GILLETTE       MOCLDY    57  37  47 S21       29.83F
SHERIDAN       MOCLDY    54  36  51 SW8       29.72F
CODY           PTCLDY    57  19  23 S5        29.79S
YELLOWSTONE LA PTCLDY    39  28  65 CALM      30.02S
SALMON         CLOUDY   N/A N/A N/A W22G36    29.79R
MULLAN PASS    CLOUDY    48  30  50 S9G20     29.67S
SAND POINT     CLOUDY    50  46  86 CALM      29.55F
SPOKANE        CLOUDY    57  45  64 S13       29.53R
$$

REGIONAL REPORTS...ALBERTA
CITY           SKY/WX    TMP DP  RH WIND       PRES   REMARKS
CALGARY        N/A       39  30  70 SE9       29.49F WCI  33
LETHBRIDGE     FAIR      37  34  89 S9        29.56F WCI  30
MEDICINE HAT   N/A       46  37  71 NW8       29.55F
EDMONTON       MOCLDY    43  25  49 SE24G31   29.55F
WATERTON GATE  N/A       41  36  82 SW6        N/A
CARDSTON       N/A       52  37  57 S9         N/A
MILK RIVER     N/A       46  39  77 W9         N/A
$$

REGIONAL REPORTS...SASKATCHEWAN
CITY           SKY/WX    TMP DP  RH WIND       PRES   REMARKS
SWIFT CURRENT  MOCLDY    48  32  54 SE22G32   29.65F
REGINA         MOCLDY    48  30  50 SE16      29.83F
VAL MARIE      N/A       52  34  50 SE15       N/A
ASSINIBOIA     N/A       46  30  54 SE14       N/A
CORONACH       N/A       48  32  54 E15G21     N/A

$$





U.S. Dept. of Commerce
NOAA National Weather Service
1325 East West Highway
Silver Spring, MD 20910
E-mail: w-nws.webmaster@noaa.gov
Page last modified: May 16, 2007
NATIONAL WEATHER SERVICE: for Safety, for Work, for Fun - FOR LIFE